Lid_Strength_Index
3 3 3 3 3 3 3 3 3 4 3 4 4 3 1 1 0 1 2 2 2 2 2 1 2 2 5 8 8 5 -1 -1 3 4 6 7 9 9 11 11 10 11 10 9 8 8 9
2 2 2 2 2 3 3 3 3 3 3 4 4 5 4 2 1 1 2 2 3 2 2 2 2 3 7 10 5 4 3 3 4 4 4 6 7 7 9 10 10 9 9 9 9 8 9
2 2 2 2 2 2 2 2 3 4 4 4 4 4 5 3 2 1 2 2 3 2 2 2 2 5 8 8 4 5 5 4 5 4 6 5 5 7 8 9 7 9 10 9 10 10 9
2 2 2 2 2 2 2 2 2 2 4 4 4 4 4 5 3 3 2 2 3 2 2 3 3 7 10 4 4 5 5 5 5 4 5 4 4 5 7 7 8 10 11 13 10 10 9
2 2 2 2 2 2 2 2 2 2 2 4 4 4 4 6 6 4 4 3 3 2 2 3 7 9 11 4 6 5 4 6 5 4 4 3 5 7 7 10 11 12 14 13 11 9 10
1 1 1 2 2 2 2 2 2 2 2 3 4 4 4 5 5 5 4 4 3 3 3 3 5 10 8 8 5 4 5 5 5 4 5 6 8 9 10 11 15 14 14 12 12 11 11
-0 -1 -1 -0 -0 0 1 2 2 2 2 2 3 4 4 5 5 5 5 5 8 9 7 9 9 10 9 6 5 5 5 5 5 6 9 7 10 12 10 10 10 11 12 13 11 10 11
-1 -1 -1 -1 -1 -1 -1 -1 0 1 1 1 3 4 4 4 5 5 4 9 9 9 12 7 7 7 7 7 9 7 5 8 8 10 8 10 12 8 8 9 10 11 12 12 10 9 10
-1 -1 -1 -1 -1 -1 -1 -1 -1 -1 1 1 1 4 4 4 5 6 5 7 6 7 12 10 8 9 8 7 10 8 6 7 8 9 9 11 10 7 9 10 11 11 12 12 12 10 11
-1 -0 -0 -1 -1 -1 -1 -1 -1 -1 -1 0 1 4 6 5 7 6 7 5 6 7 15 15 11 10 9 9 12 6 5 7 8 10 9 10 7 9 10 11 10 13 9 10 11 13 16
-0 -0 -0 -0 -0 -0 -0 -1 -1 -1 -1 -1 0 1 4 5 6 7 5 4 6 10 23 14 12 7 9 11 12 10 6 5 9 9 9 11 10 10 11 11 9 12 9 10 11 12 14
-0 -0 -1 -0 -0 -0 -0 -1 -0 -0 -0 -1 -0 1 4 6 6 5 3 4 7 16 23 15 12 13 13 12 12 10 8 6 6 8 9 10 8 8 9 8 8 8 10 11 12 13 18
-0 -0 -0 -0 -0 -0 -0 -0 -0 -0 -0 -1 -0 1 3 6 9 5 4 6 16 19 14 16 14 13 13 14 13 12 11 10 11 14 14 11 10 9 8 10 8 10 12 18 20 19 19
0 0 0 0 0 0 0 0 0 -0 -0 -0 -0 0 2 5 5 4 6 11 18 15 16 12 12 13 15 13 13 13 13 12 9 10 13 15 17 10 8 10 11 11 12 18 22 21 18
1 0 0 0 0 -0 -0 -0 0 -0 -0 0 -0 1 4 3 6 5 8 16 15 14 14 14 13 15 15 13 14 14 14 13 11 9 12 14 14 9 8 8 8 12 14 10 16 16 19
0 0 0 0 0 -0 -0 -0 -0 0 0 0 2 3 5 3 5 7 12 14 13 11 11 12 15 14 16 15 15 15 15 12 11 9 8 11 16 10 9 7 8 10 9 15 15 21 22
1 0 0 0 0 0 0 -0 -0 0 -0 0 3 7 5 2 4 9 16 13 12 10 10 12 14 14 14 15 14 14 14 12 10 9 8 9 12 14 10 11 12 12 13 12 13 17 20
1 0 0 0 0 0 0 0 0 -0 0 1 5 10 4 2 9 10 12 12 10 11 10 11 10 12 13 13 14 15 14 12 9 9 11 9 12 16 14 11 9 10 11 12 17 18 18
0 0 1 1 1 1 0 0 0 0 0 2 7 9 3 3 13 12 10 11 11 11 11 11 11 10 10 13 14 13 13 9 9 9 10 9 13 18 16 13 10 12 11 11 12 16 17
1 1 1 1 1 0 0 0 0 0 0 2 8 11 8 6 7 10 11 14 13 10 10 10 10 10 10 13 11 13 12 11 9 10 8 8 13 14 17 15 12 14 12 11 12 16 16
1 1 1 1 1 1 1 1 0 0 0 3 8 10 10 12 10 10 10 11 13 12 10 9 11 11 12 14 13 14 12 13 12 10 10 10 15 13 13 12 13 12 12 12 13 13 16
1 1 1 1 1 1 1 1 1 0 0 5 10 10 9 10 8 10 10 12 12 11 11 12 12 11 11 13 13 14 14 14 14 12 12 11 16 13 14 12 12 13 12 12 12 12 12
1 1 1 1 1 1 1 1 1 1 1 6 8 7 8 10 10 11 11 10 11 10 9 9 10 11 11 11 11 11 11 12 12 13 14 13 14 16 17 13 14 17 14 12 12 12 12
1 1 1 1 1 1 1 1 1 1 2 5 6 7 10 12 10 11 9 9 10 10 11 9 9 10 10 9 10 11 12 12 12 13 12 15 13 16 18 16 21 14 13 11 11 12 12
1 1 1 1 1 1 1 1 1 1 1 4 7 7 10 13 9 9 9 9 9 8 10 9 9 8 8 10 14 15 16 16 16 13 13 12 15 18 18 18 16 15 16 14 13 13 11
1 1 1 1 1 1 1 1 1 2 1 3 6 6 7 10 10 8 9 9 11 11 12 13 9 7 10 13 15 17 18 16 18 16 12 12 13 15 18 19 21 17 15 11 11 15 11
1 1 1 1 1 1 1 1 2 2 1 3 5 5 5 9 7 7 10 10 8 9 11 13 12 12 11 14 15 16 16 14 18 18 18 17 17 17 18 18 17 14 15 12 16 16 12
1 1 1 1 1 1 1 1 1 1 1 2 4 5 6 9 8 7 6 8 8 8 11 13 12 13 14 14 15 15 16 16 16 15 17 17 18 18 18 19 19 13 15 16 15 16 14
1 1 1 1 1 1 1 1 1 1 1 1 6 6 5 7 8 7 7 6 6 6 9 10 10 12 12 14 15 15 16 16 17 18 14 17 15 17 16 16 14 15 16 15 15 16 15